Total_Precipitation_Accumulation
0.00 0.00 0.00 0.00 0.00 0.00 0.00 0.00 0.00 0.00 0.00 0.00 0.00 0.00 0.00 0.01 0.01 0.01 0.02 0.01 0.01 0.02 0.03 0.03 0.03 0.06 0.09 0.06 0.14 0.07 0.08 0.13 0.13 0.29 0.46 0.36 0.28 0.16 0.15 0.25 0.40 0.27
0.00 0.00 0.00 0.00 0.00 0.00 0.00 0.00 0.00 0.01 0.01 0.01 0.00 0.00 0.00 0.00 0.00 0.01 0.02 0.02 0.00 0.01 0.02 0.02 0.03 0.05 0.09 0.07 0.02 0.02 0.04 0.03 0.03 0.04 0.09 0.14 0.25 0.18 0.11 0.21 0.15 0.21
0.00 0.00 0.00 0.00 0.00 0.00 0.00 0.00 0.00 0.00 0.00 0.00 0.00 0.01 0.01 0.00 0.00 0.01 0.01 0.02 0.02 0.01 0.01 0.01 0.02 0.01 0.03 0.03 0.06 0.06 0.09 0.03 0.03 0.03 0.06 0.08 0.08 0.24 0.19 0.17 0.23 0.10
0.00 0.00 0.00 0.00 0.00 0.00 0.00 0.00 0.00 0.00 0.01 0.01 0.01 0.01 0.00 0.01 0.00 0.01 0.01 0.01 0.01 0.02 0.03 0.02 0.02 0.02 0.02 0.03 0.04 0.03 0.04 0.02 0.03 0.03 0.08 0.05 0.11 0.14 0.11 0.17 0.18 0.11
0.00 0.00 0.00 0.00 0.00 0.00 0.00 0.00 0.00 0.00 0.00 0.00 0.00 0.00 0.01 0.01 0.02 0.01 0.01 0.01 0.01 0.02 0.02 0.01 0.01 0.01 0.01 0.01 0.02 0.03 0.03 0.03 0.04 0.03 0.03 0.05 0.06 0.06 0.05 0.10 0.22 0.13
0.00 0.00 0.00 0.00 0.00 0.00 0.00 0.00 0.00 0.00 0.00 0.00 0.00 0.01 0.01 0.00 0.01 0.00 0.01 0.01 0.01 0.02 0.01 0.01 0.00 0.01 0.01 0.01 0.02 0.03 0.03 0.04 0.03 0.05 0.05 0.05 0.08 0.14 0.05 0.13 0.05 0.14
0.00 0.00 0.00 0.00 0.00 0.00 0.00 0.00 0.00 0.00 0.00 0.00 0.00 0.00 0.00 0.01 0.00 0.01 0.01 0.00 0.01 0.01 0.01 0.01 0.02 0.01 0.03 0.03 0.04 0.03 0.03 0.04 0.03 0.03 0.04 0.06 0.07 0.05 0.14 0.18 0.10 0.15
0.00 0.00 0.00 0.00 0.00 0.00 0.00 0.00 0.00 0.00 0.00 0.00 0.00 0.00 0.00 0.00 0.00 0.00 0.00 0.01 0.01 0.01 0.01 0.01 0.02 0.02 0.02 0.03 0.04 0.04 0.03 0.04 0.03 0.03 0.05 0.08 0.04 0.04 0.08 0.17 0.23 0.25
0.00 0.00 0.00 0.00 0.00 0.00 0.00 0.00 0.00 0.00 0.00 0.00 0.00 0.00 0.00 0.00 0.00 0.00 0.01 0.00 0.01 0.01 0.02 0.02 0.03 0.03 0.03 0.04 0.04 0.05 0.05 0.05 0.04 0.06 0.09 0.07 0.11 0.06 0.08 0.23 0.18 0.22
0.01 0.02 0.02 0.02 0.00 0.01 0.00 0.00 0.00 0.00 0.00 0.00 0.00 0.00 0.00 0.00 0.00 0.01 0.00 0.00 0.01 0.01 0.02 0.04 0.05 0.04 0.08 0.06 0.08 0.09 0.08 0.09 0.06 0.10 0.18 0.19 0.17 0.17 0.12 0.21 0.21 0.23
0.17 0.11 0.05 0.03 0.00 0.00 0.00 0.00 0.00 0.00 0.00 0.00 0.00 0.00 0.00 0.00 0.01 0.01 0.01 0.01 0.01 0.01 0.03 0.06 0.02 0.05 0.05 0.05 0.10 0.12 0.19 0.20 0.13 0.14 0.18 0.17 0.12 0.16 0.09 0.20 0.25 0.27
0.31 0.41 0.41 0.06 0.03 0.00 0.00 0.00 0.00 0.00 0.00 0.00 0.00 0.00 0.00 0.04 0.03 0.02 0.02 0.01 0.01 0.02 0.05 0.08 0.12 0.13 0.14 0.17 0.18 0.23 0.17 0.17 0.23 0.23 0.13 0.10 0.09 0.10 0.13 0.15 0.16 0.14
0.52 0.39 0.24 0.02 0.01 0.05 0.01 0.00 0.00 0.01 0.02 0.00 0.00 0.01 0.01 0.00 0.00 0.05 0.03 0.04 0.03 0.03 0.08 0.11 0.16 0.11 0.20 0.24 0.19 0.35 0.53 0.24 0.16 0.08 0.10 0.11 0.08 0.06 0.05 0.07 0.22 0.16
0.53 0.48 0.23 0.01 0.00 0.01 0.01 0.01 0.02 0.04 0.05 0.05 0.01 0.00 0.00 0.01 0.02 0.02 0.01 0.02 0.04 0.06 0.06 0.07 0.11 0.25 0.27 0.40 0.27 0.32 0.30 0.18 0.16 0.14 0.08 0.07 0.07 0.10 0.04 0.05 0.05 0.05
0.69 0.44 0.06 0.05 0.05 0.01 0.05 0.03 0.01 0.04 0.02 0.00 0.00 0.00 0.01 0.01 0.02 0.03 0.04 0.03 0.03 0.08 0.11 0.10 0.21 0.33 0.42 0.45 0.54 0.45 0.35 0.28 0.16 0.11 0.09 0.08 0.06 0.04 0.03 0.07 0.05 0.06
0.57 0.50 0.59 0.52 0.06 0.13 0.04 0.02 0.04 0.04 0.02 0.01 0.01 0.02 0.01 0.02 0.02 0.00 0.01 0.03 0.06 0.07 0.11 0.18 0.40 0.42 0.38 0.36 0.40 0.50 0.40 0.34 0.30 0.26 0.13 0.08 0.09 0.07 0.05 0.05 0.05 0.12
0.41 0.42 1.17 0.76 0.25 0.10 0.02 0.03 0.02 0.01 0.01 0.02 0.03 0.04 0.07 0.05 0.02 0.01 0.00 0.00 0.01 0.03 0.10 0.28 0.46 0.34 0.16 0.10 0.09 0.10 0.20 0.24 0.22 0.17 0.15 0.14 0.17 0.16 0.10 0.06 0.05 0.11
0.80 0.66 0.83 0.40 0.05 0.04 0.03 0.02 0.02 0.02 0.02 0.03 0.04 0.06 0.07 0.04 0.01 0.00 0.00 0.00 0.01 0.07 0.08 0.19 0.16 0.06 0.05 0.04 0.05 0.09 0.10 0.08 0.08 0.14 0.15 0.19 0.19 0.18 0.15 0.16 0.14 0.15
0.88 0.83 0.47 0.04 0.03 0.02 0.02 0.02 0.03 0.02 0.02 0.01 0.01 0.02 0.03 0.01 0.00 0.00 0.00 0.00 0.01 0.03 0.07 0.05 0.08 0.03 0.02 0.02 0.02 0.03 0.03 0.02 0.03 0.09 0.14 0.15 0.15 0.14 0.15 0.18 0.18 0.19
0.64 0.36 0.49 0.12 0.01 0.01 0.03 0.02 0.02 0.01 0.01 0.00 0.00 0.00 0.00 0.00 0.00 0.00 0.00 0.01 0.02 0.03 0.04 0.05 0.06 0.02 0.01 0.01 0.02 0.02 0.02 0.02 0.03 0.08 0.14 0.23 0.28 0.25 0.30 0.33 0.33 0.49
0.26 0.38 0.12 0.15 0.04 0.01 0.01 0.01 0.00 0.00 0.00 0.00 0.00 0.00 0.00 0.00 0.00 0.00 0.00 0.01 0.02 0.04 0.05 0.03 0.02 0.01 0.01 0.01 0.01 0.01 0.01 0.02 0.04 0.09 0.15 0.30 0.36 0.41 0.62 0.72 0.65 0.45
0.16 0.57 0.28 0.04 0.09 0.07 0.04 0.02 0.02 0.02 0.03 0.02 0.02 0.01 0.00 0.00 0.00 0.00 0.00 0.00 0.02 0.05 0.02 0.02 0.01 0.01 0.01 0.01 0.01 0.01 0.02 0.03 0.10 0.17 0.27 0.38 0.66 0.76 0.67 0.53 0.63 0.64
0.21 0.39 0.13 0.11 0.05 0.03 0.05 0.04 0.05 0.05 0.03 0.02 0.01 0.00 0.00 0.00 0.00 0.00 0.00 0.00 0.02 0.03 0.04 0.04 0.09 0.04 0.00 0.01 0.01 0.02 0.06 0.10 0.21 0.62 0.81 0.71 0.62 0.78 0.48 0.39 0.48 0.72
0.31 0.25 0.46 0.32 0.22 0.07 0.04 0.06 0.05 0.02 0.02 0.01 0.00 0.00 0.00 0.00 0.00 0.01 0.01 0.01 0.04 0.34 0.06 0.08 0.05 0.03 0.01 0.01 0.01 0.03 0.14 0.42 0.79 1.13 0.89 0.73 0.66 0.58 0.49 0.47 0.71 0.50
0.62 0.66 0.37 0.13 0.07 0.04 0.03 0.06 0.02 0.05 0.00 0.01 0.00 0.03 0.02 0.02 0.02 0.02 0.04 0.32 0.36 0.25 0.05 0.09 0.06 0.07 0.02 0.02 0.02 0.06 0.33 0.86 1.15 1.08 0.95 0.99 1.00 1.15 1.10 1.66 2.18 1.45
0.42 0.29 0.32 0.10 0.19 0.06 0.07 0.13 0.19 0.08 0.05 0.03 0.09 0.09 0.05 0.05 0.18 0.30 0.30 0.29 0.21 0.05 0.05 0.08 0.09 0.15 0.07 0.03 0.05 0.10 0.30 0.58 0.63 0.56 0.91 1.15 1.05 1.05 2.21 2.62 1.16 1.46